Inquirer Daily News

Weather

Get conditions and forecasts for any City, State, ZIP code or Country:  
Northeast Philadelphia, PA
on Sunday, December 30, 2012

Sunday
Previous Day Next Day
Daily Summary
 ActualAverage (KTTN)Record (KTTN)
Temperature
Mean Temperature °F 32°F  
Max Temperature 37°F 40°F 62°F (1990)
Min Temperature 28°F 24°F -8°F (1880)
Degree Days
Heating Degree Days 32 33  
Month to date heating degree days 886  
Since 1 July heating degree days 1862  
Cooling Degree Days 0 0  
Month to date cooling degree days 0  
Year to date cooling degree days 965  
Moisture
Dew Point 18°F   
Average Humidity 55    
Maximum Humidity 73    
Minimum Humidity 46    
Precipitation
Precipitation 0.00 in 0.08 in 2.59 in (1948)
Month to date precipitation 3.61  
Year to date precipitation 46.35  
Wind
Wind Speed 14 mph   
Max Wind Speed 25 mph   
Max Gust Speed 37 mph   
Visibility 10 miles   
Events     

Key: T is trace of precipitation, MM is missing value
Source: NWS Daily Summary
Time(EST)TemperatureDew PointHumidity Pressure Visibility Wind DirectionWind SpeedGust SpeedPrecipitationEvents Conditions
12:54 AM 32.0°F 23.0°F 69% 29.71 in 10.0 miles WNW 10.4 mph - N/A   Mostly Cloudy
1:54 AM 32.0°F 24.1°F 73% 29.76 in 10.0 miles WNW 10.4 mph - N/A   Overcast
2:54 AM 33.1°F 23.0°F 66% 29.79 in 10.0 miles WNW 15.0 mph 20.7 mph N/A   Overcast
3:54 AM 33.1°F 21.9°F 64% 29.81 in 10.0 miles WNW 16.1 mph 25.3 mph N/A   Mostly Cloudy
4:54 AM 32.0°F 19.0°F 59% 29.83 in 10.0 miles NW 25.3 mph 36.8 mph N/A   Clear
5:54 AM 30.9°F 18.0°F 59% 29.86 in 10.0 miles NW 19.6 mph 28.8 mph N/A   Clear
6:54 AM 30.9°F 18.0°F 59% 29.89 in 10.0 miles WNW 12.7 mph 20.7 mph N/A   Clear
7:54 AM 30.9°F 18.0°F 59% 29.94 in 10.0 miles WNW 9.2 mph - N/A   Clear
8:54 AM 32.0°F 19.0°F 59% 29.98 in 10.0 miles NW 15.0 mph 23.0 mph N/A   Clear
9:54 AM 34.0°F 18.0°F 52% 30.01 in 10.0 miles NW 23.0 mph 35.7 mph N/A   Clear
10:54 AM 35.1°F 18.0°F 50% 30.03 in 10.0 miles NW 19.6 mph 33.4 mph N/A   Clear
11:54 AM 36.0°F 18.0°F 48% 30.04 in 10.0 miles WNW 17.3 mph 32.2 mph N/A   Mostly Cloudy
12:54 PM 37.0°F 18.0°F 46% 30.03 in 10.0 miles NW 17.3 mph 33.4 mph N/A   Mostly Cloudy
1:54 PM 37.0°F 18.0°F 46% 30.04 in 10.0 miles NW 24.2 mph 35.7 mph N/A   Overcast
2:54 PM 36.0°F 19.0°F 50% 30.06 in 10.0 miles WNW 17.3 mph 27.6 mph N/A   Mostly Cloudy
3:54 PM 37.0°F 18.0°F 46% 30.10 in 10.0 miles NW 15.0 mph 23.0 mph N/A   Partly Cloudy
4:54 PM 35.1°F 19.0°F 52% 30.13 in 10.0 miles WNW 13.8 mph 27.6 mph N/A   Mostly Cloudy
5:54 PM 34.0°F 19.0°F 54% 30.18 in 10.0 miles NW 11.5 mph 18.4 mph N/A   Scattered Clouds
6:54 PM 34.0°F 17.1°F 50% 30.21 in 10.0 miles NW 13.8 mph 25.3 mph N/A   Clear
7:54 PM 33.1°F 16.0°F 50% 30.24 in 10.0 miles WNW 10.4 mph 21.9 mph N/A   Clear
8:54 PM 33.1°F 15.1°F 48% 30.22 in 10.0 miles NW 6.9 mph - N/A   Clear
9:54 PM 30.9°F 15.1°F 52% 30.22 in 10.0 miles NW 4.6 mph - N/A   Clear
10:54 PM 30.0°F 15.1°F 54% 30.25 in 10.0 miles West 5.8 mph - N/A   Clear
11:54 PM 28.9°F 16.0°F 58% 30.26 in 10.0 miles WSW 5.8 mph - N/A   Clear
Astronomy
Sunrise:07:21 AM (EST) Moon Rise:07:12 PM (EST)12/30
Sunset:04:43 PM (EST) Moon Set:08:29 AM (EST)12/30
Moon Phase
Dec. 30 Jan. 04 Jan. 11 Jan. 18 Jan. 26

Copyright © 2014 The Weather Underground, Inc.